PE1BMM-13 Weather Reports


time (UTC)temp
C
wind
direction
speed
KPH
gust
KPH
rain 1hr
cm
rain 24hr
cm
rain mn
cm
humidity
%
barometer
mb
20260503034647 13 134 0.0 0.0 0.03 0.10 0.10 95 1011.6
20260503034455 13 134 0.0 0.0 0.00 0.08 0.08 95 1011.6
20260503034141 13 134 0.0 0.0 0.00 0.08 0.08 95 1011.6
20260503033636 13 134 0.0 0.0 0.00 0.08 0.08 95 1011.7
20260503033454 13 134 0.0 0.0 0.00 0.08 0.08 95 1011.7
20260503033129 13 134 0.0 0.0 0.00 0.08 0.08 95 1011.8
20260503032623 13 134 0.0 0.0 0.00 0.08 0.08 95 1011.9
20260503032447 13 134 0.0 0.0 0.00 0.08 0.08 95 1011.8
20260503032117 13 134 0.0 0.0 0.00 0.08 0.08 95 1011.9
20260503031610 13 134 0.0 0.0 0.00 0.08 0.08 95 1011.9
20260503031447 13 134 0.0 0.0 0.00 0.08 0.08 95 1011.9
20260503031105 13 134 0.0 0.0 0.00 0.08 0.08 95 1011.9
20260503030943 13 134 0.0 0.0 0.00 0.08 0.08 95 1011.7
20260503030717 13 134 0.0 0.0 0.00 0.08 0.08 95 1011.8
20260503030053 13 134 0.0 3.2 0.00 0.08 0.08 95 1011.6
20260503025546 13 133 0.0 3.2 0.00 0.08 0.08 95 1011.7
20260503025447 13 133 0.0 3.2 0.00 0.08 0.08 95 1011.6
20260503025041 13 134 0.0 0.0 0.00 0.08 0.08 95 1011.6
20260503024535 13 135 0.0 0.0 0.00 0.08 0.08 95 1011.6
20260503024448 13 135 0.0 0.0 0.00 0.08 0.08 95 1011.7
20260503024029 13 135 0.0 0.0 0.00 0.08 0.08 95 1011.8
20260503023523 13 135 0.0 1.6 0.00 0.08 0.08 95 1011.9
20260503023448 13 135 0.0 1.6 0.00 0.08 0.08 95 1011.8
20260503023017 13 135 0.0 1.6 0.00 0.08 0.08 95 1011.9
20260503022511 13 135 0.0 1.6 0.00 0.08 0.08 95 1011.8
20260503022449 13 135 0.0 1.6 0.00 0.08 0.08 95 1011.8
20260503022005 13 135 0.0 0.0 0.00 0.08 0.08 95 1011.9
20260503021459 13 135 0.0 0.0 0.00 0.08 0.08 95 1011.9
20260503021447 13 135 0.0 0.0 0.00 0.08 0.08 95 1012.0
20260503020953 13 135 0.0 1.6 0.00 0.08 0.08 95 1011.7
20260503020925 13 135 0.0 1.6 0.00 0.08 0.08 95 1011.8
20260503020659 13 135 0.0 1.6 0.00 0.08 0.08 95 1011.8
20260503015941 13 135 0.0 0.0 0.00 0.08 0.08 95 1012.0
20260503015435 13 135 0.0 1.6 0.00 0.08 0.08 95 1011.9
20260503014930 13 135 0.0 1.6 0.00 0.08 0.08 95 1012.0
20260503014423 13 135 0.0 1.6 0.00 0.08 0.08 95 1012.1
20260503013917 13 135 0.0 1.6 0.00 0.08 0.08 95 1012.1
20260503013449 13 135 0.0 1.6 0.00 0.08 0.08 95 1012.0
20260503013411 13 135 0.0 1.6 0.00 0.08 0.08 95 1012.0
20260503012905 13 135 0.0 0.0 0.00 0.08 0.08 95 1012.0
20260503012441 13 135 0.0 0.0 0.00 0.08 0.08 95 1011.9
20260503012359 13 135 0.0 0.0 0.00 0.08 0.08 95 1011.9
20260503011853 13 135 0.0 0.0 0.00 0.08 0.08 95 1011.9
20260503011441 13 135 0.0 0.0 0.00 0.08 0.08 95 1011.9
20260503011350 13 135 0.0 0.0 0.00 0.08 0.08 95 1011.9
20260503010842 13 135 0.0 1.6 0.00 0.08 0.08 95 1012.1
20260503010442 13 135 0.0 3.2 0.00 0.08 0.08 94 1012.1
20260503010335 13 135 0.0 3.2 0.00 0.08 0.08 94 1012.2
20260503005829 13 135 0.0 3.2 0.00 0.08 0.08 94 1012.2
20260503005441 13 135 0.0 1.6 0.00 0.08 0.08 94 1012.2
20260503005323 13 135 0.0 1.6 0.00 0.08 0.08 94 1012.2
20260503004818 13 135 0.0 1.6 0.00 0.08 0.08 94 1012.2
20260503004442 13 135 0.0 1.6 0.00 0.08 0.08 94 1012.1
20260503004311 13 135 0.0 1.6 0.00 0.08 0.08 94 1012.0
20260503003804 13 134 0.0 0.0 0.00 0.08 0.08 94 1011.9
20260503003442 13 134 0.0 3.2 0.00 0.08 0.08 94 1012.0
20260503003259 13 134 0.0 3.2 0.00 0.08 0.08 94 1012.1
20260503002753 13 134 0.0 3.2 0.00 0.08 0.08 94 1012.2
20260503002436 13 134 0.0 1.6 0.00 0.08 0.08 94 1012.3
20260503002247 13 134 0.0 1.6 0.00 0.08 0.08 94 1012.2
20260503001740 13 134 0.0 3.2 0.00 0.08 0.08 94 1012.4
20260503001436 13 134 0.0 3.2 0.03 0.08 0.08 94 1012.3
20260503001354 13 134 0.0 3.2 0.03 0.08 0.08 93 1012.5
20260503001235 13 134 0.0 3.2 0.03 0.08 0.08 94 1012.4
20260503000729 13 134 0.0 1.6 0.03 0.08 0.08 93 1012.4
20260503000225 13 134 0.0 3.2 0.03 0.08 0.08 93 1012.5
20260502235724 13 134 1.6 4.8 0.05 0.08 0.08 93 1012.5
20260502235433 13 134 1.6 8.0 0.05 0.08 0.08 93 1012.6
20260502235225 13 134 3.2 8.0 0.05 0.08 0.08 93 1012.6
20260502234725 13 111 3.2 8.0 0.08 0.08 0.08 93 1012.5
20260502234433 13 111 1.6 8.0 0.08 0.08 0.08 93 1012.5
20260502234223 13 66 3.2 9.7 0.08 0.08 0.08 93 1012.6
20260502233722 13 107 3.2 14.5 0.08 0.08 0.08 93 1012.7
20260502233433 13 112 4.8 14.5 0.08 0.08 0.08 93 1012.8
20260502233221 13 108 4.8 14.5 0.08 0.08 0.08 93 1012.8
20260502232722 13 108 4.8 14.5 0.08 0.08 0.08 93 1013.0
20260502232432 13 66 4.8 14.5 0.08 0.08 0.08 93 1013.0
20260502232223 13 167 6.4 16.1 0.08 0.08 0.08 93 1013.0
20260502231722 13 150 6.4 16.1 0.08 0.08 0.08 93 1013.3
20260502231433 13 117 8.0 16.1 0.05 0.05 0.05 93 1013.2
20260502231222 13 112 6.4 16.1 0.05 0.05 0.05 93 1013.4
20260502230723 13 150 8.0 17.7 0.05 0.05 0.05 93 1013.6
20260502230436 13 156 6.4 17.7 0.05 0.05 0.05 93 1013.5
20260502230223 13 107 6.4 17.7 0.05 0.05 0.05 93 1013.5
20260502225722 13 99 4.8 16.1 0.05 0.05 0.05 93 1013.4
20260502225431 13 113 4.8 12.9 0.03 0.03 0.03 93 1013.5
20260502225221 13 89 4.8 9.7 0.03 0.03 0.03 92 1013.7
20260502224723 13 101 3.2 9.7 0.00 0.00 0.00 92 1014.0
20260502224432 13 98 1.6 9.7 0.00 0.00 0.00 92 1014.1
20260502224222 13 99 1.6 6.4 0.00 0.00 0.00 92 1014.2
20260502223721 13 163 1.6 6.4 0.00 0.00 0.00 92 1014.4
20260502223431 13 47 3.2 6.4 0.00 0.00 0.00 92 1014.6
20260502223222 13 316 3.2 8.0 0.00 0.00 0.00 92 1014.4
20260502222722 13 330 6.4 19.3 0.00 0.00 0.00 92 1014.7
20260502222431 13 295 8.0 19.3 0.00 0.00 0.00 92 1014.8
20260502222222 12 310 6.4 19.3 0.00 0.00 0.00 91 1014.7
20260502221722 12 266 3.2 17.7 0.00 0.00 0.00 91 1015.0
20260502221431 12 110 1.6 6.4 0.00 0.00 0.00 90 1013.8
20260502221359 12 106 1.6 6.4 0.00 0.00 0.00 89 1013.4
20260502221222 12 110 1.6 6.4 0.00 0.00 0.00 90 1013.8
20260502220722 12 106 1.6 6.4 0.00 0.00 0.00 89 1013.5
20260502220221 12 113 1.6 6.4 0.00 0.00 0.00 89 1013.4
20260502215719 12 117 1.6 6.4 0.00 0.00 0.00 89 1013.4
20260502215427 12 71 1.6 6.4 0.00 0.00 0.00 89 1013.4
20260502215223 12 102 1.6 6.4 0.00 0.00 0.00 89 1013.5
20260502214720 12 83 1.6 4.8 0.00 0.00 0.00 89 1013.5
20260502214429 12 102 1.6 4.8 0.00 0.00 0.00 89 1013.5
20260502214222 12 79 1.6 4.8 0.00 0.00 0.00 89 1013.5
20260502213720 12 80 1.6 4.8 0.00 0.00 0.00 89 1013.6
20260502213424 12 106 0.0 4.8 0.00 0.00 0.00 89 1013.7
20260502213220 12 106 1.6 4.8 0.00 0.00 0.00 89 1013.6
20260502212718 12 106 0.0 4.8 0.00 0.00 0.00 88 1013.6
20260502212423 12 108 0.0 4.8 0.00 0.00 0.00 88 1013.7
20260502212217 12 102 0.0 4.8 0.00 0.00 0.00 88 1013.6
20260502211717 12 111 0.0 0.0 0.00 0.00 0.00 88 1013.9
20260502211422 12 112 0.0 3.2 0.00 0.00 0.00 88 1014.0
20260502211218 12 112 0.0 3.2 0.00 0.00 0.00 88 1014.0
20260502210910 12 91 0.0 4.8 0.00 0.00 0.00 88 1014.1
20260502210718 12 117 0.0 4.8 0.00 0.00 0.00 88 1014.0
20260502210220 12 93 0.0 4.8 0.00 0.00 0.00 87 1014.1
20260502205717 12 93 0.0 3.2 0.00 0.00 0.00 87 1014.1
20260502205421 13 93 0.0 3.2 0.00 0.00 0.00 87 1014.2
20260502205217 13 93 0.0 3.2 0.00 0.00 0.00 87 1014.2
20260502204816 13 102 1.6 6.4 0.00 0.00 0.00 87 1014.5
20260502204718 13 79 0.0 0.0 0.00 0.00 0.00 87 1014.2
20260502204603 13 98 0.0 3.2 0.00 0.00 0.00 87 1014.2
20260502204217 13 98 0.0 4.8 0.00 0.00 0.00 87 1014.2
20260502203718 13 102 1.6 4.8 0.00 0.00 0.00 87 1014.4
20260502203216 13 102 1.6 6.4 0.00 0.00 0.00 87 1014.5
20260502202910 13 58 1.6 4.8 0.00 0.00 0.00 87 1014.4
20260502202717 13 82 1.6 6.4 0.00 0.00 0.00 87 1014.5
20260502202218 13 45 1.6 4.8 0.00 0.00 0.00 87 1014.4
20260502201716 13 2 1.6 4.8 0.00 0.00 0.00 87 1014.6
20260502201426 13 68 1.6 6.4 0.00 0.00 0.00 87 1014.7
20260502201216 13 108 1.6 6.4 0.00 0.00 0.00 86 1014.7
20260502200718 13 80 0.0 6.4 0.00 0.00 0.00 87 1014.7
20260502200418 13 78 0.0 3.2 0.00 0.00 0.00 87 1014.7
20260502200216 13 68 0.0 3.2 0.00 0.00 0.00 87 1014.7
20260502195900 13 359 0.0 3.2 0.00 0.00 0.00 87 1014.8
20260502195711 13 359 0.0 3.2 0.00 0.00 0.00 87 1014.8
20260502195205 13 359 0.0 3.2 0.00 0.00 0.00 87 1014.8
20260502194700 13 117 0.0 4.8 0.00 0.00 0.00 86 1014.8
20260502194417 13 117 0.0 4.8 0.00 0.00 0.00 86 1014.8
20260502194153 13 117 0.0 4.8 0.00 0.00 0.00 86 1014.8
20260502193652 14 108 0.0 4.8 0.00 0.00 0.00 85 1014.8
20260502193416 14 110 1.6 4.8 0.00 0.00 0.00 85 1014.8
20260502193148 14 21 1.6 4.8 0.00 0.00 0.00 85 1014.7
20260502192649 14 27 1.6 4.8 0.00 0.00 0.00 85 1014.8
20260502192415 14 351 1.6 4.8 0.00 0.00 0.00 84 1014.8
20260502192149 14 23 1.6 6.4 0.00 0.00 0.00 84 1014.8
20260502191648 15 358 1.6 6.4 0.00 0.00 0.00 84 1014.8
20260502191415 15 23 1.6 6.4 0.00 0.00 0.00 84 1014.9
20260502191149 15 12 1.6 4.8 0.00 0.00 0.00 84 1014.8
20260502190647 15 49 1.6 6.4 0.00 0.00 0.00 83 1014.9
20260502190416 15 53 1.6 6.4 0.00 0.00 0.00 83 1014.9
20260502190146 15 54 1.6 6.4 0.00 0.00 0.00 83 1015.0
20260502185645 15 51 1.6 4.8 0.00 0.00 0.00 82 1014.9
20260502185413 15 19 0.0 4.8 0.00 0.00 0.00 82 1014.8
20260502185146 15 18 1.6 4.8 0.00 0.00 0.00 82 1014.9
20260502184643 15 16 1.6 6.4 0.00 0.00 0.00 81 1014.9
20260502184415 15 16 1.6 6.4 0.00 0.00 0.00 81 1014.9
20260502184144 15 10 1.6 6.4 0.00 0.00 0.00 81 1014.8
20260502183900 16 8 1.6 6.4 0.00 0.00 0.00 80 1014.9
20260502183701 16 45 1.6 4.8 0.00 0.00 0.00 80 1014.8
20260502183142 16 358 1.6 6.4 0.00 0.00 0.00 79 1014.9
20260502182642 16 357 1.6 6.4 0.00 0.00 0.00 79 1014.8
20260502182414 16 44 3.2 8.0 0.00 0.00 0.00 78 1014.8
20260502182144 16 343 3.2 11.3 0.00 0.00 0.00 78 1014.9
20260502181643 16 63 3.2 11.3 0.00 0.00 0.00 77 1014.9
20260502181414 16 11 3.2 11.3 0.00 0.00 0.00 77 1014.9
20260502181137 16 9 3.2 9.7 0.00 0.00 0.00 76 1014.9
20260502180631 16 5 3.2 9.7 0.00 0.00 0.00 76 1014.9
20260502180415 16 71 3.2 11.3 0.00 0.00 0.00 75 1014.9
20260502180125 16 62 3.2 11.3 0.00 0.00 0.00 74 1015.0
20260502170519 19 246 1.6 6.4 0.00 0.00 0.00 57 1015.4
20260502170407 19 113 1.6 6.4 0.00 0.00 0.00 57 1015.5
20260502163952 19 248 3.2 11.3 0.00 0.00 0.00 50 1015.7
20260502163443 19 41 3.2 9.7 0.00 0.00 0.00 52 1015.8
20260502163407 19 23 3.2 9.7 0.00 0.00 0.00 52 1015.8
20260502162940 19 233 3.2 11.3 0.00 0.00 0.00 53 1015.8
20260502162431 19 260 4.8 11.3 0.00 0.00 0.00 54 1015.8
20260502162408 19 297 4.8 11.3 0.00 0.00 0.00 54 1015.8
20260502161926 19 260 3.2 11.3 0.00 0.00 0.00 51 1015.9
20260502161425 19 243 4.8 11.3 0.00 0.00 0.00 50 1015.9
20260502161407 19 212 4.8 11.3 0.00 0.00 0.00 50 1015.9
20260502160925 19 240 4.8 11.3 0.00 0.00 0.00 52 1015.9
20260502160425 19 216 4.8 14.5 0.00 0.00 0.00 54 1015.9
20260502160409 19 247 4.8 14.5 0.00 0.00 0.00 54 1015.9
20260502151925 18 256 8.0 16.1 0.00 0.00 0.00 53 1016.2
20260502151424 18 285 8.0 16.1 0.00 0.00 0.00 53 1016.4
20260502151405 19 225 8.0 16.1 0.00 0.00 0.00 53 1016.4
20260502150926 19 262 8.0 14.5 0.00 0.00 0.00 53 1016.4
20260502150425 19 271 8.0 14.5 0.00 0.00 0.00 54 1016.4
20260502150405 19 239 8.0 14.5 0.00 0.00 0.00 54 1016.4
20260502130403 18 277 11.3 22.5 0.00 0.00 0.00 70 1017.3
20260502123411 18 258 12.9 27.4 0.00 0.00 0.00 76 1017.6
20260502123407 18 256 12.9 27.4 0.00 0.00 0.00 76 1017.6
20260502122903 18 248 11.3 19.3 0.00 0.00 0.00 76 1017.6
20260502122409 18 233 12.9 19.3 0.00 0.00 0.00 75 1017.6
20260502122403 18 262 12.9 20.9 0.00 0.00 0.00 75 1017.6
20260502122327 18 248 14.5 24.1 0.00 0.00 0.00 76 1017.8
20260502122105 18 281 14.5 22.5 0.00 0.00 0.00 77 1017.8
20260502121616 18 248 14.5 24.1 0.00 0.00 0.00 76 1017.8
20260502121328 19 281 12.9 20.9 0.00 0.00 0.00 76 1017.8
20260502121100 19 241 12.9 24.1 0.00 0.00 0.00 76 1017.7
20260502120357 19 271 12.9 20.9 0.00 0.00 0.00 76 1017.8
20260502115855 19 264 12.9 20.9 0.00 0.00 0.00 76 1017.8
20260502115402 19 252 11.3 20.9 0.00 0.00 0.00 76 1017.8
20260502115355 19 276 11.3 20.9 0.00 0.00 0.00 76 1017.8
20260502114853 19 252 11.3 19.3 0.00 0.00 0.00 78 1017.8
20260502114404 19 253 11.3 19.3 0.00 0.00 0.00 77 1017.8
20260502114351 19 252 11.3 19.3 0.00 0.00 0.00 77 1017.9
20260502113851 19 263 11.3 20.9 0.00 0.00 0.00 76 1017.8
20260502113400 19 234 11.3 20.9 0.00 0.00 0.00 77 1017.8
20260502113351 19 277 11.3 20.9 0.00 0.00 0.00 77 1017.9
20260502112849 19 267 11.3 20.9 0.00 0.00 0.00 77 1017.9
20260502112402 18 257 11.3 20.9 0.00 0.00 0.00 78 1017.9
20260502112350 18 253 11.3 20.9 0.00 0.00 0.00 77 1017.9
20260502111849 18 253 11.3 17.7 0.00 0.00 0.00 78 1017.8
20260502111401 18 239 11.3 17.7 0.00 0.00 0.00 78 1017.9
20260502111349 18 245 11.3 17.7 0.00 0.00 0.00 78 1018.0
20260502110849 18 267 12.9 20.9 0.00 0.00 0.00 78 1018.0
20260502110402 18 261 11.3 20.9 0.00 0.00 0.00 80 1018.0
20260502110349 18 266 11.3 20.9 0.00 0.00 0.00 80 1018.0
20260502105850 18 270 11.3 24.1 0.00 0.00 0.00 81 1018.0
20260502105400 18 272 12.9 24.1 0.00 0.00 0.00 81 1018.0
20260502105347 18 255 12.9 24.1 0.00 0.00 0.00 81 1018.0
20260502104848 18 241 12.9 22.5 0.00 0.00 0.00 80 1018.0
20260502104400 18 248 12.9 19.3 0.00 0.00 0.00 80 1018.0
20260502104345 18 262 12.9 19.3 0.00 0.00 0.00 80 1018.1
20260502103839 18 257 12.9 22.5 0.00 0.00 0.00 80 1017.9
20260502103402 18 254 12.9 22.5 0.00 0.00 0.00 79 1018.1
20260502103330 19 264 12.9 22.5 0.00 0.00 0.00 79 1018.1
20260502102826 18 257 12.9 22.5 0.00 0.00 0.00 80 1018.0
20260502102401 18 263 12.9 22.5 0.00 0.00 0.00 80 1018.0
20260502102318 18 216 12.9 22.5 0.00 0.00 0.00 80 1018.1
20260502101813 19 265 9.7 17.7 0.00 0.00 0.00 80 1018.0
20260502101401 19 282 9.7 17.7 0.00 0.00 0.00 82 1017.9
20260502101318 18 287 9.7 17.7 0.00 0.00 0.00 83 1017.9
20260502101306 19 265 8.0 17.7 0.00 0.00 0.00 82 1018.0
20260502100800 18 283 8.0 17.7 0.00 0.00 0.00 83 1017.9
20260502100254 18 262 9.7 17.7 0.00 0.00 0.00 83 1018.0
20260502091355 16 254 4.8 9.7 0.00 0.00 0.00 89 1018.1
20260502091154 16 255 4.8 9.7 0.00 0.00 0.00 89 1018.1
20260502090648 15 259 3.2 6.4 0.00 0.00 0.00 89 1018.0
20260502090354 15 257 3.2 6.4 0.00 0.00 0.00 88 1018.0
20260502090142 15 261 3.2 6.4 0.00 0.00 0.00 88 1017.9
20260502071526 14 266 1.6 4.8 0.00 0.00 0.00 82 1018.0
20260502071349 14 266 1.6 4.8 0.00 0.00 0.00 82 1018.0
20260502071028 14 266 1.6 4.8 0.00 0.00 0.00 82 1018.1
20260502070524 14 266 1.6 4.8 0.00 0.00 0.00 81 1018.0
20260502070348 14 266 1.6 4.8 0.00 0.00 0.00 81 1018.1
20260502070320 13 264 1.6 6.4 0.00 0.00 0.00 81 1018.1
20260502070113 14 266 1.6 6.4 0.00 0.00 0.00 81 1018.1
20260502065618 13 266 1.6 6.4 0.00 0.00 0.00 82 1018.1
20260502065023 13 260 1.6 6.4 0.00 0.00 0.00 81 1018.1
20260502064524 13 261 1.6 4.8 0.00 0.00 0.00 81 1018.0
20260502064349 13 258 1.6 4.8 0.00 0.00 0.00 81 1018.0
20260502064019 13 258 3.2 4.8 0.00 0.00 0.00 80 1018.0
20260502063520 13 257 3.2 6.4 0.00 0.00 0.00 79 1018.1
20260502063350 13 254 3.2 6.4 0.00 0.00 0.00 79 1018.1
20260502063020 13 260 3.2 6.4 0.00 0.00 0.00 78 1018.1
20260502062520 13 256 3.2 6.4 0.00 0.00 0.00 78 1018.1
20260502062349 13 260 1.6 6.4 0.00 0.00 0.00 77 1018.1
20260502062019 13 260 1.6 6.4 0.00 0.00 0.00 78 1018.1
20260502061519 13 265 1.6 6.4 0.00 0.00 0.00 78 1018.0
20260502061347 12 264 1.6 6.4 0.00 0.00 0.00 78 1018.0
20260502061020 12 265 3.2 6.4 0.00 0.00 0.00 78 1018.1
20260502060520 12 258 3.2 8.0 0.00 0.00 0.00 78 1017.9
20260502060350 12 258 3.2 8.0 0.00 0.00 0.00 78 1018.0
20260502060020 12 258 1.6 8.0 0.00 0.00 0.00 77 1018.1
20260502055829 12 200 0.0 0.0 0.00 0.00 0.00 73 1017.8
20260502055622 13 212 0.0 4.8 0.00 0.00 0.00 73 1017.8
20260502055015 12 200 0.0 0.0 0.00 0.00 0.00 74 1017.8
20260502054515 12 200 0.0 0.0 0.00 0.00 0.00 74 1017.7
20260502054343 12 200 0.0 0.0 0.00 0.00 0.00 74 1017.7
20260502054015 12 200 0.0 0.0 0.00 0.00 0.00 74 1017.7
20260502053515 12 200 0.0 0.0 0.00 0.00 0.00 75 1017.7
20260502053344 12 200 0.0 0.0 0.00 0.00 0.00 75 1017.7
20260502053014 11 200 0.0 0.0 0.00 0.00 0.00 77 1017.7
20260502052514 11 200 0.0 0.0 0.00 0.00 0.00 78 1017.8
20260502052345 11 200 0.0 0.0 0.00 0.00 0.00 78 1017.8
20260502052016 11 200 0.0 0.0 0.00 0.00 0.00 79 1017.8
20260502051516 10 200 0.0 1.6 0.00 0.00 0.00 80 1017.8
20260502051345 10 200 0.0 1.6 0.00 0.00 0.00 80 1017.9
20260502051009 10 200 0.0 1.6 0.00 0.00 0.00 80 1017.9
20260502050503 10 200 0.0 0.0 0.00 0.00 0.00 81 1017.8
20260502050348 10 200 0.0 0.0 0.00 0.00 0.00 81 1017.8
20260502045957 10 200 0.0 0.0 0.00 0.00 0.00 81 1017.8
20260502045451 9 200 0.0 0.0 0.00 0.00 0.00 81 1017.8
20260502045345 9 200 0.0 0.0 0.00 0.00 0.00 81 1017.8
20260502044948 9 200 0.0 3.2 0.00 0.00 0.00 80 1017.9
20260502044448 9 200 0.0 3.2 0.00 0.00 0.00 80 1017.8
20260502044347 9 200 0.0 3.2 0.00 0.00 0.00 80 1017.9
20260502043948 9 200 0.0 3.2 0.00 0.00 0.00 79 1017.9
20260502043445 9 199 0.0 0.0 0.00 0.00 0.00 79 1017.7
20260502043344 9 199 0.0 0.0 0.00 0.00 0.00 79 1017.6
20260502042946 9 199 0.0 1.6 0.00 0.00 0.00 79 1017.7
20260502042440 9 199 0.0 3.2 0.00 0.00 0.00 79 1017.8
20260502042344 9 199 0.0 3.2 0.00 0.00 0.00 79 1017.8
20260502041938 9 199 0.0 3.2 0.00 0.00 0.00 79 1017.9
20260502041436 9 199 0.0 3.2 0.00 0.00 0.00 78 1017.8
20260502041344 9 199 0.0 3.2 0.00 0.00 0.00 78 1017.8
20260502040934 9 199 0.0 3.2 0.00 0.00 0.00 78 1018.0
20260502040434 9 199 0.0 1.6 0.00 0.00 0.00 78 1017.9
20260502040344 9 199 0.0 1.6 0.00 0.00 0.00 78 1017.8
20260502035932 9 199 0.0 0.0 0.00 0.00 0.00 78 1017.9
20260502035428 9 199 0.0 4.8 0.00 0.00 0.00 78 1017.9
20260502035341 9 199 0.0 4.8 0.00 0.00 0.00 78 1017.9